Regional Weather Roundup
Issued by NWS

Home | Current Version | Previous Version | Graphics & Text | Print | Product List | Glossary On
Versions: 1 2 3 4 5 6 7 8 9 10 11 12 13 14 15 16 17 18 19 20 21 22 23 24 25 26 27 28 29 30 31 32 33 34 35 36 37 38 39 40 41 42 43 44 45 46 47 48 49 50
000
ASUS43 KLOT 231904
RWRIL

ILLINOIS REGIONAL WEATHER ROUNDUP
NATIONAL WEATHER SERVICE CHICAGO/ROMEOVILLE IL
200 PM CDT TUE MAY 23 2017

NOTE: "FAIR" INDICATES FEW OR NO CLOUDS BELOW 12,000 FEET WITH NO
SIGNIFICANT WEATHER AND/OR OBSTRUCTIONS TO VISIBILITY.

* THESE STATIONS ARE NOT UNDER NWS QUALITY CONTROL. THEY ALSO MAY NOT
  REPORT WEATHER SUCH AS PRECIPITATION OR FOG.

ILZ001-002-007-009-015-016-024-232000-
NORTHWEST ILLINOIS

CITY           SKY/WX    TMP DP  RH WIND       PRES   REMARKS
MOLINE         CLOUDY    60  53  77 NW10      29.74S
STERLING*      RAIN      57  55  93 W6        29.74F
SAVANNA*       CLOUDY    61  53  73 NW6       29.73S
$$

ILZ003-004-008-010-011-017-018-232000-
NORTH CENTRAL ILLINOIS

CITY           SKY/WX    TMP DP  RH WIND       PRES   REMARKS
ROCKFORD       LGT RAIN  59  57  93 W6        29.74F
FREEPORT*      CLOUDY    59  52  79 SW3       29.75S
ROCHELLE*      CLOUDY    60  56  84 SW10      29.74S
DE KALB*       CLOUDY    61  55  80 S13       29.74F
PERU*          RAIN      57  55  91 S5        29.75F
$$

ILZ005-006-012>014-019>023-232000-
NORTHEAST ILLINOIS

CITY           SKY/WX    TMP DP  RH WIND       PRES   REMARKS
CHICAGO-OHARE  LGT RAIN  62  54  74 S5        29.74F
CHICAGO-MIDWAY LGT RAIN  63  54  72 CALM      29.75F
AURORA         LGT RAIN  60  57  89 S6        29.75F FOG
LANSING*       LGT RAIN  63  55  75 CALM      29.76S
WAUKEGAN       CLOUDY    58  54  86 SE8       29.74F
DUPAGE AIRPORT LGT RAIN  59  57  93 S6        29.74F FOG
KANKAKEE*      CLOUDY    65  55  70 CALM      29.75F
WHEELING       CLOUDY    62  55  77 S3        29.75F
MORRIS*        CLOUDY    60  55  84 CALM      29.75F
ROMEOVILLE*    DRIZZLE   60  57  89 CALM      29.76S
NORTHERLY ISL    N/A     59  55  87 SE2         N/A
$$

LMZ740>746-232000-
SOUTHERN LAKE MICHIGAN

STATION/POSITION SKY/WX   TEMP    WIND        PRES    VSBY  WAVE
                          AIR SEA DIR/SP/G                  HT/PER
                          (F)     (DEG/KT/KT) (MB)    (MI)  (FT/S)
SOUTHERN BUOY              48 45  150/  8/  8 1008.9          1
WILMETTE HARBOR            52 54                N/A           1
HARRISON CRIB              58     140/ 10/ 10   N/A
BURNHAM HARBOR             59     130/  3/  7   N/A
CALUMET HARBOR             60      90/  5/  6 1007.4F
BURNS HARBOR               58      70/  8/  9 1008.5F
MICHIGAN CITY              56      40/  8/  9   N/A
MICHIGAN CITY 6N           55 53   70/  6/  6   N/A           1
ST. JOSEPH                 57 56   70/  4/  4 1008.6F         1
$$

ILZ025>027-034>036-040-047-049-050-058-095>099-232000-
WEST-CENTRAL ILLINOIS

CITY           SKY/WX    TMP DP  RH WIND       PRES   REMARKS
QUINCY         CLOUDY    62  55  77 NW12      29.75F
GALESBURG*     CLOUDY    59  54  83 NW6       29.74F
MACOMB*        PTSUNNY   60  56  85 N8        29.76F
JACKSONVILLE*  CLOUDY    59  56  88 CALM      29.75F
PITTSFIELD*    CLOUDY    61  57  87 CALM      29.76F
$$

ILZ028>032-037-038-041>044-048-051>054-059>061-232000-
CENTRAL ILLINOIS

CITY           SKY/WX    TMP DP  RH WIND       PRES   REMARKS
PONTIAC        CLOUDY    61  59  93 W5        29.76F
BLOOMINGTON    CLOUDY    61  56  83 VRB5      29.76F
DECATUR        CLOUDY    67  53  61 S5        29.73F
PEORIA         LGT RAIN  60  58  92 SE3       29.74F
LACON*         LGT RAIN  57  56  99 S5        29.74F
LINCOLN*       LGT RAIN  61  59  93 N3        29.74F
SPRINGFIELD    CLOUDY    63  59  87 N5        29.75F
TAYLORVILLE    LGT RAIN  65  58  79 N6        29.73F
$$

ILZ033-039-045-046-055>057-062-063-232000-
EAST-CENTRAL ILLINOIS

CITY           SKY/WX    TMP DP  RH WIND       PRES   REMARKS
CHAMPAIGN      CLOUDY    68  50  52 S7        29.74F
RANTOUL*       CLOUDY    70  53  54 S5        29.74F
MATTOON        CLOUDY    70  55  59 VRB5      29.73F
PARIS*         CLOUDY    70  52  53 NE5       29.74F
$$

ILZ079-100>102-232000-
SOUTHWEST ILLINOIS

CITY           SKY/WX    TMP DP  RH WIND       PRES   REMARKS
ALTON          CLOUDY    63  55  77 N9        29.74F
BELLEVILLE     LGT RAIN  65  61  87 NW10      29.73F
CAHOKIA*       CLOUDY    67  58  72 SW5       29.73F
SPARTA*        LGT RAIN  70  52  53 W6        29.73F
$$

ILZ064>066-069>071-074>076-080>082-084>086-088>090-092>094-232000-
SOUTH-CENTRAL ILLINOIS

CITY           SKY/WX    TMP DP  RH WIND       PRES   REMARKS
CARBONDALE     LGT RAIN  70  56  61 W5        29.73F
CAIRO*         CLOUDY    72  54  53 NW5       29.73S
EFFINGHAM*     LGT RAIN  70  53  54 CALM      29.74F
MARION         PTSUNNY   72  54  53 SW6       29.74F
MT. VERNON       N/A     71  50  47 SW5       29.73F
CENTRALIA*     CLOUDY    72  53  51 SW3       29.72S
SALEM*         CLOUDY    72  50  46 CALM      29.72F
$$

ILZ067-068-072-073-078-083-087-091-232000-
SOUTHEAST ILLINOIS

CITY           SKY/WX    TMP DP  RH WIND       PRES   REMARKS
LAWRENCEVILLE  CLOUDY    71  48  43 CALM      29.72F
FLORA*         CLOUDY    72  50  46 CALM      29.73F
FAIRFIELD*     CLOUDY    71  44  37 SW3       29.72F
HARRISBURG*    CLOUDY    73  53  49 W9        29.73S
ROBINSON*      CLOUDY    72  48  41 S5        29.73F
CARMI*         MOSUNNY   74  50  43 S3        29.71F
$$

ABBREVIATIONS USED IN REMARKS
   TC - TEMPERATURE IN CELSIUS
  WCI - WIND CHILL INDEX
   HX - HEAT INDEX
  VSB - VISIBILITY
$$





USA.gov is the U.S. government's official web portal to all federal, state and local government web resources and services.